Other Surface Observations
Issued by NWS

Home | Current Version | Previous Version | Text Only | Print | Product List | Glossary On
Versions: 1 2 3 4 5 6 7 8 9 10 11 12 13 14 15 16 17 18 19 20 21 22 23 24 25 26 27 28 29 30 31 32 33 34 35 36 37 38 39 40 41 42 43 44 45 46 47 48 49 50
000
SXUS52 KTAE 041418
OSOTAE
OSOTAE
North Florida/South Alabama/Southwest Georgia Weather Roundup
National Weather Service Tallahassee Florida
1000 AM EDT TUE AUG 04 2015

Note: "fair" indicates few or no clouds below 12,000 feet with no
significant weather and/or obstructions to visibility.

!FLZ017-115-028-034-025-041500
...North Florida...

CITY           SKY/WX    TMP DP  RH WIND       PRES   REMARKS
TALLAHASSEE    PTSUNNY   87  78  74 W10       30.00S HX 100
APALACHICOLA     N/A     90  77  65 W14       30.00S HX 103
PERRY          PTSUNNY   82  82 100 CALM      30.02R THUNDER HX  94
CROSS CITY       N/A     76  74  93 NW9       30.04R
JACKSONVILLE   CLOUDY    81  77  88 SW6       30.01R
$$

!FLZ112-006-005-002-011-041500
...Florida Panhandle...

CITY           SKY/WX    TMP DP  RH WIND       PRES   REMARKS
MARIANNA       SUNNY     85  75  72 W8        29.99R HX  93
BONIFAY        FAIR      85  75  72 VRB5      30.00  HX  93
PANAMA CITY NW FAIR      86  78  77 W13       29.99R HX  98
TYNDALL AFB    MOSUNNY   86  78  76 W15       30.00R HX  98
TYND DRONE APT FAIR      86  79  79 W9        30.00R HX  99
DE FUNIAK SPR  FAIR      83  76  78 SW3       30.01S HX  92
EGLIN AFB      MOSUNNY   86  76  72 W9        30.00S HX  96
DESTIN         MOSUNNY   86  76  71 W5        30.00R HX  96
HURLBURT       SUNNY     86  76  73 W8        29.99S HX  96
CRESTVIEW      SUNNY     85  76  74 W8        30.02R HX  94
PENSACOLA      SUNNY     85  75  72 W5        30.01R HX  93
$$

!ALZ063-066-041500
...South Alabama...

CITY           SKY/WX    TMP DP  RH WIND       PRES   REMARKS
DOTHAN         SUNNY     83  73  72 W6        30.04R
OZARK CAIRNS   SUNNY     83  73  72 NW6       30.00R
FT RUCKER HELI SUNNY     84  72  67 SW3       29.99R
RUCKER HELI 3  FAIR      83  70  64 W5        30.02R
RUCKER HELI 2  FAIR      83  72  69 W3        29.99S
FLORALA APT    SUNNY     84  74  71 CALM      30.02S HX  91
ANDALUSIA      SUNNY     87  72  60 NW3       30.00S HX  93
TROY           SUNNY     82  70  66 CALM      30.01R
EUFALA         FAIR      87  72  60 CALM      29.99R HX  93
MOBILE         MOSUNNY   83  75  77 CALM      30.02R HX  90
$$

!GAZ120>161-041500
...Southwest and South Central Georgia...

CITY           SKY/WX    TMP DP  RH WIND       PRES   REMARKS
THOMASVILLE    CLOUDY    82  77  83 CALM      30.01S HX  91
BAINBRIDGE     SUNNY     88  77  70 SW7       30.00S HX 100
MOODY AFB      SUNNY     84  76  76 N3        29.99S HX  93
VALDOSTA       NOT AVBL
MOULTRIE       SUNNY     82  75  78 NW5       30.01S
BLAKELY        SUNNY     86  77  74 CALM      30.00S HX  97
ALBANY         SUNNY     85  75  72 CALM      30.01S HX  93
TIFTON         FAIR      83  73  70 NW3       30.01R
FITZGERALD     FAIR      86  75  69 NW5       30.03S HX  95
CORDELE        FAIR      86  76  72 W3        30.01S HX  96
AMERICUS       FAIR      86  70  58 NW6       30.02S HX  90
HOMERVILLE     FAIR      86  79  79 NW6       30.00S HX  99
$$

!GMZ750-755-770-775-041500
...Coastal and Buoy Obs...

STATION/POSITION TIME  TEMP    WIND        PRES    VSBY  WAVE
                       AIR SEA DIR/SP/G                  HT/PER
                 (UTC) (F)     (DEG/KT/KT) (MB)    (MI)  (FT/S)
KEATON BEACH     1400   75     100/  6/  9 1017.0R
CEDAR KEY        1400   84     250/  8/ 10 1017.4R
C TOWER          1400   84     260/ 12/ 13 1016.3S
APALACHICOLA BUO 1350   85 84  260/ 10/ 10 1017.0R         3/ 6
PANAMA CITY BUOY 1350   84 86  290/  8/ 10 1017.0R         3/ 6
MOBILE BUOY      1350   84 86  210/ 10/ 12 1016.5R         2/ 5
ORANGE BCH AL BU 1350   84 86  360/  6/  8 1015.3R         2/ 4
$$



USA.gov is the U.S. government's official web portal to all federal, state and local government web resources and services.